OBJECT AA, 42849

Orbit data source: Space-Track

You're viewing an uncataloged RSO

Recently launched and/or uncataloged RSOs may have evolving metadata. Metadata may include the following, but is not limited to: Owner, Manufacturer, Bus, Motor, and Mission.

OBJECT AA, 42849 is a satellite in SSO that was launched on Fri, 14 Jul 2017 UTC via a SOYUZ-2-1A launch vehicle from the Tyuratam Missile And Space Complex (TTMTR). Unknown objects in Earth's orbit typically refer to objects detected orbiting the Earth but have not yet been identified or cataloged. These objects could be anything from previously untracked satellites, spent rocket stages, debris from satellite collisions, or even natural meteoroids temporarily captured by Earth's gravity.

Loading next visibility...
Identifier
42849, 2017-042AA
Orbit
SSO
Country
Flag of TBDTBD
Related business
None
Manufacturer
Unknown
Mission
Non-operational Commercial Meteo Radio Occ.
Bus & Motor
Unknown
Mass
Unknown
Launch date (UTC)
2017-07-14 (9 years ago)
Launch vehicle
SOYUZ-2-1A
Launch site
Tyuratam Missile And Space Complex (TTMTR)
Object type
Unknown
Shape & HBR
Box + 2 Pan, 0.3 m
Radar Cross Section
0.079 m², Medium (>0.1 m² and < 1m²)

Expand to show TLE details & history
Last TLE update: 1 day ago

TLE from 1 day ago
0 OBJECT AA
1 42849U 17042AA  26263.39785458  .00002844  00000-0  18708-3 0  9994
2 42849  97.4354  65.9952 0011810 131.7111 228.5129 15.08288813501563
Epoch: 2026-09-20T09:32Z
TLE epoch observation values (Epoch: 2026-09-20T09:32:54.635Z)
Latitude
-0.00013°
Longitude
-76.52504°
Altitude
549.922 km
Speed
7.584 km/s
True Right ascension
04h 23m 58s
True Declination
0° 00' 00"
Sunlit
Object was in daylight at epoch
Visualization orbit readout
Latitude
Unknown
Longitude
Unknown
Altitude
Unknown
Speed
Unknown
Apparent Right ascension
Unknown
Apparent Declination
Unknown
Sunlit
N/A
Visualization observer readout
Local Sidereal Time
06:56:40
Azimuth
Unknown
Elevation
Unknown
Doppler factor
Unknown
Orbital elements
Apogee altitude
546.58 km
Perigee altitude
530.243 km
Semi-major axis
6,916.548 km
Eccentricity
0.00118
Inclination
97.4354°
RAAN
65.9952°
Arg. of periapsis
131.7111°
True anomaly
228.41162°
Mean anomaly
228.5129°
Eccentric anomaly
228.46225°
Mean motion
3.77319 °/min
Orbital period
95.41 mins
BSTAR
0.00018708
Loading maneuver chart data...
Computing Atmospheric mass density...

Documentation

Showing up to 5 results
|